EJA303 KFRG-KCRG

Flight info

Callsign EJA303
Flight time N/A
Altitude 36000
Route VFR
Aircraft C700/L-V/N

Departure

Time N/A
Airport Republic Airport (KFRG)

Arrival

Time 2026-05-04 15:53
Airport Jacksonville Executive at Craig Airport (KCRG)
Time Latitude Longitude Altitude Speed Heading
2026-05-04 13:56 41.19399 -74.42756 30364 ft 383 kts 268°
2026-05-04 13:57 41.18727 -74.47403 30986 ft 392 kts 257°
2026-05-04 13:57 41.17751 -74.50808 31440 ft 399 kts 249°
2026-05-04 13:58 41.13937 -74.59403 32714 ft 407 kts 243°
2026-05-04 13:58 41.10986 -74.65851 33763 ft 408 kts 242°
2026-05-04 13:58 41.09528 -74.69020 34301 ft 406 kts 242°
2026-05-04 13:59 41.08062 -74.72214 34744 ft 406 kts 242°
2026-05-04 13:59 41.06591 -74.75419 35191 ft 406 kts 242°
2026-05-04 13:59 41.03651 -74.81800 35996 ft 408 kts 242°
2026-05-04 14:00 41.02152 -74.85056 35993 ft 419 kts 242°
2026-05-04 14:00 40.99030 -74.91801 35976 ft 440 kts 240°
2026-05-04 14:00 40.97174 -74.95089 35986 ft 452 kts 233°
2026-05-04 14:01 40.92448 -75.00724 35999 ft 461 kts 221°
2026-05-04 14:02 40.84915 -75.08381 35998 ft 454 kts 222°
2026-05-04 14:02 40.79881 -75.13476 35977 ft 457 kts 222°
2026-05-04 14:03 40.74829 -75.18589 35997 ft 459 kts 222°
2026-05-04 14:03 40.69780 -75.23684 35997 ft 451 kts 221°
2026-05-04 14:04 40.62434 -75.31088 35992 ft 440 kts 222°
2026-05-04 14:04 40.57566 -75.35980 35998 ft 445 kts 221°
2026-05-04 14:05 40.53088 -75.41550 36014 ft 441 kts 234°
2026-05-04 14:05 40.51314 -75.44834 36024 ft 437 kts 242°
2026-05-04 14:06 40.48178 -75.51659 36016 ft 436 kts 242°
2026-05-04 14:06 40.45032 -75.58456 36013 ft 435 kts 242°
2026-05-04 14:07 40.41914 -75.65209 36018 ft 434 kts 242°
2026-05-04 14:07 40.38770 -75.71980 36014 ft 435 kts 242°
2026-05-04 14:08 40.35623 -75.78751 36016 ft 434 kts 242°
2026-05-04 14:08 40.32473 -75.85513 36009 ft 434 kts 242°
2026-05-04 14:09 40.27752 -75.95624 35999 ft 435 kts 242°
2026-05-04 14:10 40.23010 -76.05747 36009 ft 434 kts 242°
2026-05-04 14:10 40.19846 -76.12483 36009 ft 434 kts 242°
2026-05-04 14:11 40.16680 -76.19209 36003 ft 435 kts 242°
2026-05-04 14:11 40.11908 -76.29318 36004 ft 435 kts 242°
2026-05-04 14:12 40.08784 -76.36101 36002 ft 434 kts 243°
2026-05-04 14:13 40.04126 -76.46181 35997 ft 434 kts 242°
2026-05-04 14:13 40.01015 -76.52919 35997 ft 433 kts 243°
2026-05-04 14:14 39.97881 -76.59666 35998 ft 435 kts 243°
2026-05-04 14:14 39.93162 -76.69811 36007 ft 437 kts 243°
2026-05-04 14:15 39.86853 -76.83317 36007 ft 437 kts 243°
2026-05-04 14:16 39.82118 -76.93417 36000 ft 435 kts 243°
2026-05-04 14:17 39.77378 -77.03495 36004 ft 435 kts 243°
2026-05-04 14:18 39.72629 -77.13558 36009 ft 435 kts 243°
2026-05-04 14:18 39.68873 -77.19725 36004 ft 444 kts 229°
2026-05-04 14:19 39.63875 -77.24555 36004 ft 455 kts 214°
2026-05-04 14:19 39.58007 -77.27832 36026 ft 461 kts 207°
2026-05-04 14:20 39.52020 -77.30906 36031 ft 462 kts 207°
2026-05-04 14:20 39.46074 -77.33941 36033 ft 462 kts 207°
2026-05-04 14:21 39.37107 -77.38514 36018 ft 461 kts 207°
2026-05-04 14:21 39.31137 -77.41547 36021 ft 460 kts 207°
2026-05-04 14:22 39.25186 -77.44570 36021 ft 458 kts 207°
2026-05-04 14:22 39.19264 -77.47571 36023 ft 456 kts 207°
2026-05-04 14:23 39.10389 -77.52058 36032 ft 457 kts 207°
2026-05-04 14:24 39.04499 -77.55029 36031 ft 458 kts 207°
2026-05-04 14:24 38.98551 -77.58024 36033 ft 458 kts 207°
2026-05-04 14:25 38.92611 -77.61009 36027 ft 459 kts 207°
2026-05-04 14:25 38.83673 -77.65492 36032 ft 460 kts 207°
2026-05-04 14:26 38.77688 -77.68486 36035 ft 461 kts 207°
2026-05-04 14:26 38.71696 -77.71478 36033 ft 461 kts 207°
2026-05-04 14:27 38.65780 -77.74428 36030 ft 458 kts 207°
2026-05-04 14:27 38.59838 -77.77385 36026 ft 456 kts 207°
2026-05-04 14:28 38.53921 -77.80326 36028 ft 457 kts 207°
2026-05-04 14:28 38.47981 -77.83271 36019 ft 459 kts 207°
2026-05-04 14:29 38.36107 -77.89143 36041 ft 458 kts 207°
2026-05-04 14:30 38.30161 -77.92076 36021 ft 458 kts 207°
2026-05-04 14:31 38.21327 -77.96576 36025 ft 454 kts 208°
2026-05-04 14:32 38.09638 -78.02642 36044 ft 455 kts 208°
2026-05-04 14:32 38.03767 -78.05678 36024 ft 456 kts 208°
2026-05-04 14:33 37.97896 -78.08718 36039 ft 456 kts 208°
2026-05-04 14:33 37.92010 -78.11755 36040 ft 456 kts 208°
2026-05-04 14:34 37.86121 -78.14792 36045 ft 457 kts 208°
2026-05-04 14:34 37.80224 -78.17825 36046 ft 458 kts 208°
2026-05-04 14:35 37.74318 -78.20859 36047 ft 458 kts 208°
2026-05-04 14:35 37.68449 -78.23868 36050 ft 457 kts 208°
2026-05-04 14:36 37.62549 -78.26888 36043 ft 456 kts 208°
2026-05-04 14:36 37.56669 -78.29893 36049 ft 454 kts 208°
2026-05-04 14:37 37.50816 -78.32879 36050 ft 453 kts 208°
2026-05-04 14:37 37.45009 -78.35947 36048 ft 451 kts 210°
2026-05-04 14:38 37.39243 -78.38996 36046 ft 453 kts 209°
2026-05-04 14:38 37.33419 -78.42050 36053 ft 454 kts 210°
2026-05-04 14:39 37.27582 -78.45125 36054 ft 456 kts 209°
2026-05-04 14:39 37.21723 -78.48191 36068 ft 455 kts 209°
2026-05-04 14:40 37.12970 -78.52772 36067 ft 451 kts 210°
2026-05-04 14:40 37.07217 -78.55778 36068 ft 449 kts 210°
2026-05-04 14:41 37.01433 -78.58794 36072 ft 450 kts 210°
2026-05-04 14:42 36.89809 -78.64838 36077 ft 452 kts 210°
2026-05-04 14:42 36.84000 -78.67853 36087 ft 452 kts 210°
2026-05-04 14:43 36.78221 -78.70844 36080 ft 452 kts 210°
2026-05-04 14:43 36.72422 -78.73844 36078 ft 450 kts 210°
2026-05-04 14:44 36.66659 -78.76817 36074 ft 446 kts 211°
2026-05-04 14:44 36.60922 -78.79778 36072 ft 446 kts 211°
2026-05-04 14:45 36.55177 -78.82732 36086 ft 447 kts 210°
2026-05-04 14:45 36.49449 -78.85676 36093 ft 448 kts 211°
2026-05-04 14:46 36.44654 -78.88133 36098 ft 447 kts 211°
2026-05-04 14:46 36.38908 -78.91078 36102 ft 446 kts 211°
2026-05-04 14:47 36.33168 -78.94013 36106 ft 446 kts 211°
2026-05-04 14:47 36.27430 -78.96942 36104 ft 445 kts 211°
2026-05-04 14:48 36.21704 -78.99861 36108 ft 443 kts 211°
2026-05-04 14:48 36.15932 -79.02594 36098 ft 445 kts 208°
2026-05-04 14:49 36.10156 -79.05188 36096 ft 445 kts 209°
2026-05-04 14:49 36.04327 -79.07813 36101 ft 448 kts 208°
2026-05-04 14:50 35.98445 -79.10447 36098 ft 450 kts 208°
2026-05-04 14:50 35.92559 -79.13084 36099 ft 449 kts 208°
2026-05-04 14:51 35.86690 -79.15707 36098 ft 448 kts 208°
2026-05-04 14:51 35.80836 -79.18321 36108 ft 447 kts 208°
2026-05-04 14:52 35.74991 -79.20926 36095 ft 445 kts 208°
2026-05-04 14:52 35.69197 -79.23506 36111 ft 446 kts 208°
2026-05-04 14:53 35.63336 -79.26109 36114 ft 449 kts 208°
2026-05-04 14:53 35.57440 -79.28725 36116 ft 450 kts 208°
2026-05-04 14:54 35.51553 -79.31331 36112 ft 448 kts 208°
2026-05-04 14:54 35.45734 -79.33906 36116 ft 446 kts 208°
2026-05-04 14:55 35.39889 -79.36486 36118 ft 445 kts 208°
2026-05-04 14:55 35.34068 -79.39053 36119 ft 444 kts 208°
2026-05-04 14:56 35.28237 -79.41621 36094 ft 446 kts 208°
2026-05-04 14:56 35.22375 -79.44196 36122 ft 448 kts 208°
2026-05-04 14:57 35.16537 -79.46759 36120 ft 449 kts 207°
2026-05-04 14:57 35.10655 -79.49335 36098 ft 448 kts 208°
2026-05-04 14:58 35.04806 -79.51942 36095 ft 447 kts 208°
2026-05-04 14:58 34.98982 -79.54527 36095 ft 444 kts 207°
2026-05-04 14:59 34.93185 -79.57096 36090 ft 442 kts 208°
2026-05-04 15:00 34.84497 -79.60941 36117 ft 444 kts 207°
2026-05-04 15:00 34.78669 -79.63516 36124 ft 445 kts 207°
2026-05-04 15:01 34.69945 -79.67360 36127 ft 446 kts 207°
2026-05-04 15:01 34.64129 -79.69920 36128 ft 444 kts 207°
2026-05-04 15:02 34.58312 -79.72475 36125 ft 444 kts 207°
2026-05-04 15:02 34.52509 -79.75021 36124 ft 443 kts 207°
2026-05-04 15:03 34.46741 -79.77549 36124 ft 444 kts 207°
2026-05-04 15:03 34.40907 -79.80099 36137 ft 446 kts 207°
2026-05-04 15:04 34.35049 -79.82658 36141 ft 448 kts 207°
2026-05-04 15:04 34.29180 -79.85216 36142 ft 446 kts 207°
2026-05-04 15:05 34.23376 -79.87744 36135 ft 445 kts 207°
2026-05-04 15:05 34.17562 -79.90272 36135 ft 444 kts 207°
2026-05-04 15:06 34.11748 -79.92797 36131 ft 443 kts 207°
2026-05-04 15:07 34.03001 -79.96587 36133 ft 446 kts 207°
2026-05-04 15:07 33.97136 -79.99125 36132 ft 448 kts 207°
2026-05-04 15:08 33.91292 -80.01648 36136 ft 448 kts 207°
2026-05-04 15:08 33.85426 -80.04178 36137 ft 447 kts 207°
2026-05-04 15:09 33.79550 -80.06614 36138 ft 446 kts 205°
2026-05-04 15:09 33.73687 -80.09031 36136 ft 444 kts 206°
2026-05-04 15:10 33.64916 -80.12655 36138 ft 446 kts 206°
2026-05-04 15:11 33.56092 -80.16297 36111 ft 448 kts 206°
2026-05-04 15:11 33.50194 -80.18719 36142 ft 448 kts 206°
2026-05-04 15:12 33.44285 -80.21148 36140 ft 448 kts 206°
2026-05-04 15:12 33.38414 -80.23556 36139 ft 448 kts 206°
2026-05-04 15:13 33.32530 -80.25993 36138 ft 445 kts 207°
2026-05-04 15:13 33.26730 -80.28545 36134 ft 443 kts 207°
2026-05-04 15:14 33.20953 -80.31069 36129 ft 441 kts 207°
2026-05-04 15:14 33.15186 -80.33596 36128 ft 442 kts 207°
2026-05-04 15:15 33.09383 -80.36129 36131 ft 444 kts 207°
2026-05-04 15:15 33.03589 -80.38657 36139 ft 446 kts 207°
2026-05-04 15:16 32.94838 -80.42465 36141 ft 445 kts 207°
2026-05-04 15:17 32.86133 -80.46248 36139 ft 442 kts 207°
2026-05-04 15:17 32.77496 -80.49994 36147 ft 441 kts 207°
2026-05-04 15:18 32.71707 -80.52499 36144 ft 444 kts 207°
2026-05-04 15:19 32.62973 -80.56273 36149 ft 447 kts 207°
2026-05-04 15:19 32.54214 -80.60048 36148 ft 445 kts 207°
2026-05-04 15:20 32.48443 -80.62532 36149 ft 440 kts 207°
2026-05-04 15:20 32.45597 -80.63750 36148 ft 428 kts 207°
2026-05-04 15:20 32.42803 -80.64953 36147 ft 428 kts 207°
2026-05-04 15:21 32.37078 -80.67426 36163 ft 447 kts 207°
2026-05-04 15:22 32.28265 -80.71188 36173 ft 446 kts 207°
2026-05-04 15:22 32.19620 -80.74893 36153 ft 442 kts 207°
2026-05-04 15:23 32.13711 -80.77111 36162 ft 453 kts 198°
2026-05-04 15:23 32.07406 -80.77945 36150 ft 455 kts 193°
2026-05-04 15:24 32.01265 -80.79125 36032 ft 437 kts 201°
2026-05-04 15:24 31.95384 -80.80917 35899 ft 439 kts 200°
2026-05-04 15:25 31.92377 -80.81610 35259 ft 439 kts 198°
2026-05-04 15:25 31.89407 -80.82266 34658 ft 428 kts 199°
2026-05-04 15:25 31.86540 -80.83014 34044 ft 418 kts 200°
2026-05-04 15:26 31.80961 -80.84481 32716 ft 404 kts 199°
2026-05-04 15:26 31.78228 -80.85144 32073 ft 397 kts 199°
2026-05-04 15:26 31.72945 -80.86488 30822 ft 385 kts 199°
2026-05-04 15:27 31.70307 -80.87158 30209 ft 380 kts 199°
2026-05-04 15:27 31.65213 -80.88437 28671 ft 375 kts 199°
2026-05-04 15:28 31.60120 -80.89723 27117 ft 372 kts 198°
2026-05-04 15:28 31.57596 -80.90358 26373 ft 370 kts 198°
2026-05-04 15:28 31.52584 -80.91618 24937 ft 366 kts 198°
2026-05-04 15:29 31.50097 -80.92244 24247 ft 365 kts 198°
2026-05-04 15:30 31.40287 -80.94706 21200 ft 358 kts 197°
2026-05-04 15:30 31.33019 -80.96527 19039 ft 353 kts 196°
2026-05-04 15:31 31.28237 -80.97723 17554 ft 350 kts 195°
2026-05-04 15:31 31.25864 -80.98316 16790 ft 348 kts 195°
2026-05-04 15:32 31.18856 -81.00066 14610 ft 341 kts 195°
2026-05-04 15:32 31.14231 -81.01220 13128 ft 337 kts 194°
2026-05-04 15:33 31.09676 -81.02355 11632 ft 332 kts 194°
2026-05-04 15:34 31.03700 -81.03842 9704 ft 327 kts 193°
2026-05-04 15:34 31.00757 -81.04573 8690 ft 325 kts 193°
2026-05-04 15:34 30.96362 -81.05666 7221 ft 321 kts 193°
2026-05-04 15:35 30.92746 -81.06564 5998 ft 318 kts 192°
2026-05-04 15:35 30.90595 -81.07100 5254 ft 314 kts 191°
2026-05-04 15:35 30.88505 -81.07618 5003 ft 295 kts 191°
2026-05-04 15:36 30.84800 -81.08536 4984 ft 251 kts 191°
2026-05-04 15:36 30.83145 -81.08946 4971 ft 237 kts 190°
2026-05-04 15:36 30.81548 -81.09337 4892 ft 233 kts 189°
2026-05-04 15:37 30.79937 -81.09542 4782 ft 234 kts 183°
2026-05-04 15:37 30.78297 -81.09703 4654 ft 238 kts 184°
2026-05-04 15:37 30.76638 -81.09886 4506 ft 240 kts 184°
2026-05-04 15:37 30.74975 -81.10072 4350 ft 239 kts 184°
2026-05-04 15:38 30.73322 -81.10252 4193 ft 238 kts 184°
2026-05-04 15:38 30.71679 -81.10431 4032 ft 236 kts 184°
2026-05-04 15:38 30.70067 -81.10606 3875 ft 235 kts 183°
2026-05-04 15:38 30.68422 -81.10786 3726 ft 234 kts 183°
2026-05-04 15:39 30.66818 -81.10960 3564 ft 234 kts 184°
2026-05-04 15:39 30.65191 -81.11137 3411 ft 235 kts 184°
2026-05-04 15:39 30.62072 -81.12267 3092 ft 239 kts 203°
2026-05-04 15:40 30.60551 -81.13057 2933 ft 239 kts 202°
2026-05-04 15:40 30.59029 -81.13836 2774 ft 239 kts 202°
2026-05-04 15:40 30.57511 -81.14623 2616 ft 239 kts 202°
2026-05-04 15:40 30.56013 -81.15457 2501 ft 236 kts 209°
2026-05-04 15:41 30.54595 -81.16377 2500 ft 233 kts 206°
2026-05-04 15:41 30.53177 -81.17248 2494 ft 234 kts 210°
2026-05-04 15:41 30.51995 -81.18557 2495 ft 238 kts 230°
2026-05-04 15:41 30.50967 -81.20078 2505 ft 240 kts 232°
2026-05-04 15:42 30.49948 -81.21622 2505 ft 241 kts 232°
2026-05-04 15:42 30.48929 -81.23173 2503 ft 242 kts 232°
2026-05-04 15:42 30.47915 -81.24723 2504 ft 241 kts 232°
2026-05-04 15:42 30.46905 -81.26265 2507 ft 239 kts 231°
2026-05-04 15:43 30.45900 -81.27801 2503 ft 239 kts 232°
2026-05-04 15:43 30.44873 -81.29314 2491 ft 239 kts 224°
2026-05-04 15:43 30.43520 -81.30418 2505 ft 239 kts 206°
2026-05-04 15:43 30.41970 -81.31037 2487 ft 236 kts 181°
2026-05-04 15:44 30.40409 -81.30597 2501 ft 231 kts 150°
2026-05-04 15:44 30.38949 -81.29869 2490 ft 232 kts 169°
2026-05-04 15:44 30.37373 -81.30141 2466 ft 240 kts 202°
2026-05-04 15:44 30.36076 -81.31373 2401 ft 244 kts 227°
2026-05-04 15:45 30.35042 -81.32925 2332 ft 242 kts 233°
2026-05-04 15:45 30.34052 -81.34482 2254 ft 239 kts 232°
2026-05-04 15:45 30.33078 -81.36031 2165 ft 238 kts 232°
2026-05-04 15:45 30.32100 -81.37604 2101 ft 242 kts 233°
2026-05-04 15:46 30.31110 -81.39187 2036 ft 244 kts 233°
2026-05-04 15:46 30.30125 -81.40788 1966 ft 244 kts 236°
2026-05-04 15:46 30.29461 -81.42586 1869 ft 241 kts 255°
2026-05-04 15:46 30.29153 -81.44454 1783 ft 231 kts 261°
2026-05-04 15:47 30.28926 -81.46195 1731 ft 206 kts 262°
2026-05-04 15:47 30.28734 -81.47727 1602 ft 179 kts 262°
2026-05-04 15:47 30.28559 -81.49065 1460 ft 166 kts 261°
2026-05-04 15:47 30.28373 -81.50373 1354 ft 167 kts 261°
2026-05-04 15:48 30.27939 -81.51613 1264 ft 169 kts 227°
2026-05-04 15:48 30.27181 -81.52535 1346 ft 149 kts 223°
2026-05-04 15:48 30.25662 -81.54278 1200 ft 155 kts 222°
2026-05-04 15:49 30.24920 -81.55118 1105 ft 146 kts 221°
2026-05-04 15:49 30.24322 -81.56062 927 ft 150 kts 255°
2026-05-04 15:49 30.24576 -81.57132 942 ft 141 kts 318°
2026-05-04 15:49 30.25392 -81.57784 1053 ft 150 kts 327°
2026-05-04 15:50 30.26257 -81.58470 1014 ft 150 kts 327°
2026-05-04 15:50 30.27214 -81.58812 969 ft 142 kts 13°
2026-05-04 15:50 30.28015 -81.58220 1054 ft 137 kts 46°
2026-05-04 15:50 30.28740 -81.57503 1013 ft 136 kts 43°
2026-05-04 15:51 30.29462 -81.56804 989 ft 135 kts 44°
2026-05-04 15:51 30.29944 -81.55897 1007 ft 133 kts 69°
2026-05-04 15:51 30.30356 -81.54920 959 ft 138 kts 60°
2026-05-04 15:51 30.30976 -81.54114 855 ft 134 kts 41°
2026-05-04 15:52 30.31687 -81.53399 667 ft 138 kts 49°
2026-05-04 15:52 30.32288 -81.52595 378 ft 127 kts 47°
2026-05-04 15:52 30.32893 -81.51883 82 ft 120 kts 43°
2026-05-04 15:52 30.33390 -81.51313 44 ft 70 kts 45°
2026-05-04 15:53 30.33532 -81.51152 44 ft 19 kts 45°
2026-05-04 15:53 30.33570 -81.51131 44 ft 4 kts 332°
2026-05-04 15:53 30.33614 -81.51205 44 ft 13 kts 294°
2026-05-04 15:53 30.33660 -81.51304 43 ft 16 kts 311°
2026-05-04 15:54 30.33743 -81.51399 42 ft 18 kts 314°
2026-05-04 15:54 30.33838 -81.51509 41 ft 20 kts 315°
2026-05-04 15:54 30.33933 -81.51619 41 ft 20 kts 315°
2026-05-04 15:54 30.33999 -81.51729 42 ft 10 kts 251°
2026-05-04 15:55 30.33974 -81.51773 45 ft 4 kts 270°
2026-05-04 15:55 30.33998 -81.51815 44 ft 8 kts 304°
2026-05-04 15:55 30.33994 -81.51851 45 ft 4 kts 215°
2026-05-04 15:55 30.33993 -81.51851 45 ft 0 kts 200°